TimePDT,TemperatureF,Dew PointF,Humidity,Sea Level PressureIn,VisibilityMPH,Wind Direction,Wind SpeedMPH,Gust SpeedMPH,PrecipitationIn,Events,Conditions,WindDirDegrees,DateUTC
12:54 AM,54.0,52.0,93,29.93,10.0,Calm,Calm,-,N/A,,Clear,0,2012-10-17 07:54:00
1:54 AM,55.0,52.0,89,29.92,10.0,Calm,Calm,-,N/A,,Clear,0,2012-10-17 08:54:00
2:54 AM,55.0,52.0,89,29.92,10.0,Calm,Calm,-,N/A,,Clear,0,2012-10-17 09:54:00
3:54 AM,57.0,54.0,89,29.91,10.0,Calm,Calm,-,N/A,,Clear,0,2012-10-17 10:54:00
4:54 AM,57.9,55.0,90,29.90,10.0,ENE,3.5,-,N/A,,Clear,70,2012-10-17 11:54:00
5:54 AM,57.0,54.0,89,29.91,10.0,West,3.5,-,N/A,,Clear,260,2012-10-17 12:54:00
6:54 AM,55.9,55.0,97,29.92,6.0,Calm,Calm,-,N/A,,Clear,0,2012-10-17 13:54:00
7:04 AM,55.4,53.6,94,29.88,7.0,Calm,Calm,-,N/A,,Partly Cloudy,0,2012-10-17 14:04:00
7:54 AM,55.0,53.1,93,29.92,10.0,Calm,Calm,-,N/A,,Clear,0,2012-10-17 14:54:00
8:54 AM,59.0,55.9,90,29.93,6.0,Calm,Calm,-,N/A,,Clear,0,2012-10-17 15:54:00
9:54 AM,70.0,55.9,61,29.93,10.0,Calm,Calm,-,N/A,,Clear,0,2012-10-17 16:54:00
10:54 AM,77.0,45.0,32,29.92,10.0,North,3.5,-,N/A,,Clear,360,2012-10-17 17:54:00
11:54 AM,72.0,52.0,49,29.92,10.0,West,5.8,-,N/A,,Clear,270,2012-10-17 18:54:00
12:54 PM,72.0,53.1,51,29.89,10.0,WNW,3.5,-,N/A,,Clear,300,2012-10-17 19:54:00
1:54 PM,68.0,54.0,61,29.88,10.0,WNW,8.1,-,N/A,,Clear,300,2012-10-17 20:54:00
2:54 PM,66.9,53.1,61,29.87,10.0,NW,5.8,-,N/A,,Clear,310,2012-10-17 21:54:00
3:54 PM,72.0,52.0,49,29.86,10.0,Calm,Calm,-,N/A,,Clear,0,2012-10-17 22:54:00
4:54 PM,69.1,48.9,49,29.86,10.0,WSW,4.6,-,N/A,,Clear,250,2012-10-17 23:54:00
5:54 PM,68.0,50.0,52,29.85,10.0,Calm,Calm,-,N/A,,Clear,0,2012-10-18 00:54:00
6:54 PM,66.0,50.0,56,29.86,10.0,Calm,Calm,-,N/A,,Clear,0,2012-10-18 01:54:00
7:54 PM,63.0,44.1,50,29.88,10.0,Calm,Calm,-,N/A,,Clear,0,2012-10-18 02:54:00
8:54 PM,64.9,39.0,39,29.88,10.0,East,4.6,-,N/A,,Clear,80,2012-10-18 03:54:00
9:54 PM,62.1,39.0,43,29.88,10.0,East,3.5,-,N/A,,Clear,100,2012-10-18 04:54:00
10:54 PM,63.0,37.0,38,29.90,10.0,ENE,5.8,-,N/A,,Clear,70,2012-10-18 05:54:00
11:54 PM,63.0,37.0,38,29.89,10.0,ESE,5.8,-,N/A,,Clear,110,2012-10-18 06:54:00